{"data":{"norad_id":57624,"epoch":"2026-09-18T18:32:38.625792Z","epoch_age_seconds":167555,"freshness":"FRESH","line1":"1 57624U 23120A   26261.77266928 -.00000196  00000+0  00000+0 0  9991","line2":"2 57624  15.0454 191.6702 0003588  42.0879 131.6221  1.00276204 11487","mean_motion":1.00276204,"eccentricity":0.0003588,"inclination_deg":15.0454,"raan_deg":191.6702,"arg_perigee_deg":42.0879,"mean_anomaly_deg":131.6221,"bstar":0,"rev_number":1148,"period_min":1436.0336177065,"perigee_km":35770.22793921,"apogee_km":35800.48446193,"semimajor_km":42163.49320057,"source":"CELESTRAK","updated_at":"2026-09-20T09:00:35.334693Z"}}